Location: Hackbridge
(51.3833°N, 0.1500°W)
Time: 20:47:01
(UTC+00:00)

ATLAS CENTAUR R/B - Pass Details

Date: 13 October 2019
Orbit: 456 x 692 km, 64.6° (Epoch: 31 October)

Event Time Altitude Azimuth Distance (km) Brightness Sun altitude
Rises 21:16:22 0° 317° (NW) 2,995 6.0 -36.7°
Reaches altitude 10° 21:19:04 10° 329° (NNW) 2,045 4.9 -37.0°
Enters shadow 21:20:02 15° 337° (NNW) 1,742 4.4 -37.1°
